Tracking 35274 objects as of 12-Sep-2026
HD Live streaming from Space Station
objects crossing your sky now

ION SCV-003


ION SCV-003 is no longer on orbit
ION SCV-003 is classified as:


NORAD ID: 48912
Int'l Code: 2021-059AK
Launch date: June 30, 2021
Source: Italy (IT)
Launch site: AIR FORCE EASTERN TEST RANGE (AFETR)
Decay date: 2024-12-09

Uplink (MHz):
Downlink (MHz): 437.515
Beacon (MHz):
Mode: 1k2 FSK
Call sign:
Status: Inactive


Uplink (MHz):
Downlink (MHz): 400.360
Beacon (MHz):
Mode: 9k6 GFSK
Call sign:
Status: Inactive

Your satellite tracking list
Your tracking list is empty




NASA's NSSDC Master Catalog

Two Line Element Set (TLE):
1 48912U 21059AK  24343.90367833  .30299551  29007-5  15470-3 0  9993
2 48912  97.5956 147.2839 0008524 244.8326 251.9010 16.55712356192718
Source of the keplerian elements: AFSPC